Date String (YYYY-MM-DD hh:mm:ss) UTC,Instrument flags,Ambient pressure (hPa),Sample flow (lpm),Bypass flow (lpm),Sample temperature (°C),Ambient temperature (°C),ASC tube jacket temperature (°C),LED temperature (°C),Box temperature (°C),Sample RH (%),Span deviation,Mass concentration (μg/m³),Mass concentration (μg/m³),Mass concentration (μg/m³)
DateTimeUTC,F1_M11,P_M11,Q1_M11,Q2_M11,T1_M11,T2_M11,T3_M11,T4_M11,T5_M11,U1_M11,ZSPAN_M11,X0_M11,X2_M11,X1_M11
2022-06-04 04:00:00,,0823.0,5.00,0.00,29.5,28.3,00.0,38.4,31.4,23.5,0000.0,0010.38,0004.39,0003.69
2022-06-04 04:01:00,,0823.1,5.00,0.00,29.5,28.3,00.0,38.4,31.4,23.5,0000.0,0010.53,0004.44,0003.72
2022-06-04 04:02:00,,0823.0,4.98,0.00,29.5,28.4,00.0,38.4,31.4,23.6,0000.0,0010.57,0004.46,0003.74
2022-06-04 04:03:00,,0823.1,5.00,0.00,29.6,28.4,00.0,38.4,31.5,23.5,0000.0,0010.11,0004.46,0003.76
2022-06-04 04:04:00,,0823.1,5.00,0.00,29.6,28.5,00.0,38.5,31.5,23.4,0000.0,0009.61,0004.49,0003.77
2022-06-04 04:05:00,,0823.1,5.00,0.00,29.6,28.5,00.0,38.5,31.5,23.4,0000.0,0009.63,0004.51,0003.78
2022-06-04 04:06:00,,0823.1,5.00,0.00,29.6,28.5,00.0,38.5,31.5,23.4,0000.0,0009.62,0004.53,0003.80
2022-06-04 04:07:00,,0823.1,4.99,0.00,29.6,28.6,00.0,38.5,31.5,23.4,0000.0,0010.44,0004.55,0003.81
2022-06-04 04:08:00,,0823.1,4.99,0.00,29.6,28.6,00.0,38.5,31.5,23.4,0000.0,0010.66,0004.61,0003.83
2022-06-04 04:09:00,,0823.1,4.99,0.00,29.6,28.6,00.0,38.5,31.6,23.4,0000.0,0010.78,0004.66,0003.86
2022-06-04 04:10:00,,0823.2,5.01,0.00,29.7,28.6,00.0,38.5,31.6,23.4,0000.0,0010.81,0004.68,0003.87
2022-06-04 04:11:00,,0823.2,5.00,0.00,29.7,28.6,00.0,38.5,31.6,23.4,0000.0,0010.81,0004.66,0003.89
2022-06-04 04:12:00,,0823.2,4.99,0.00,29.7,28.7,00.0,38.5,31.6,23.4,0000.0,0010.82,0004.61,0003.89
2022-06-04 04:13:00,,0823.3,5.00,0.00,29.7,28.7,00.0,38.5,31.6,23.2,0000.0,0010.86,0004.62,0003.90
2022-06-04 04:14:00,,0823.3,5.00,0.00,29.7,28.7,00.0,38.6,31.6,23.2,0000.0,0010.82,0004.62,0003.91
2022-06-04 04:15:00,,0823.3,5.01,0.00,29.7,28.7,00.0,38.6,31.7,23.2,0000.0,0010.47,0004.61,0003.93
2022-06-04 04:16:00,,0823.3,5.00,0.00,29.8,28.8,00.0,38.6,31.7,22.9,0000.0,0010.15,0004.57,0003.93
2022-06-04 04:17:00,,0823.3,4.99,0.00,29.8,28.8,00.0,38.6,31.7,22.8,0000.0,0010.11,0004.55,0003.93
2022-06-04 04:18:00,,0823.4,4.99,0.00,29.8,28.8,00.0,38.6,31.7,22.9,0000.0,0009.47,0004.55,0003.94
2022-06-04 04:19:00,,0823.4,5.00,0.00,29.8,28.8,00.0,38.6,31.7,23.0,0000.0,0008.82,0004.55,0003.95
2022-06-04 04:20:00,,0823.3,5.00,0.00,29.8,28.8,00.0,38.6,31.7,23.3,0000.0,0008.58,0004.52,0003.94
2022-06-04 04:21:00,,0823.3,5.00,0.00,29.8,28.8,00.0,38.7,31.7,24.0,0000.0,0008.39,0004.50,0003.95
2022-06-04 04:22:00,,0823.4,5.00,0.00,29.8,28.9,00.0,38.7,31.7,23.9,0000.0,0008.52,0004.55,0003.96
2022-06-04 04:23:00,,0823.5,4.98,0.00,29.8,28.9,00.0,38.7,31.7,23.5,0000.0,0008.49,0004.60,0003.96
2022-06-04 04:24:00,,0823.6,5.01,0.00,29.9,28.9,00.0,38.7,31.8,23.0,0000.0,0008.48,0004.58,0003.96
2022-06-04 04:25:00,,0823.6,4.98,0.00,29.9,28.9,00.0,38.7,31.7,23.1,0000.0,0008.75,0004.57,0003.95
2022-06-04 04:26:00,,0823.6,5.00,0.00,29.9,28.9,00.0,38.7,31.8,23.1,0000.0,0009.24,0004.58,0003.94
2022-06-04 04:27:00,,0823.6,5.00,0.00,29.9,28.9,00.0,38.7,31.8,23.0,0000.0,0009.59,0004.63,0003.95
2022-06-04 04:28:00,,0823.7,4.99,0.00,29.9,28.9,00.0,38.7,31.8,23.0,0000.0,0010.29,0004.68,0003.97
2022-06-04 04:29:00,,0823.7,5.00,0.00,29.9,28.9,00.0,38.8,31.8,22.8,0000.0,0010.43,0004.72,0003.97
2022-06-04 04:30:00,,0823.7,5.01,0.00,29.9,29.0,00.0,38.8,31.8,22.8,0000.0,0010.86,0004.71,0003.97
2022-06-04 04:31:00,,0823.7,5.00,0.00,30.0,29.0,00.0,38.8,31.9,22.8,0000.0,0010.93,0004.73,0003.97
2022-06-04 04:32:00,,0823.7,4.98,0.00,30.0,29.0,00.0,38.8,31.9,22.6,0000.0,0011.07,0004.75,0003.95
2022-06-04 04:33:00,,0823.8,5.00,0.00,30.0,29.0,00.0,38.8,31.9,22.4,0000.0,0011.84,0004.72,0003.92
2022-06-04 04:34:00,,0823.8,5.02,0.00,30.0,29.0,00.0,38.8,31.9,22.5,0000.0,0011.69,0004.67,0003.88
2022-06-04 04:35:00,,0823.8,5.00,0.00,30.0,29.0,00.0,38.8,31.9,22.6,0000.0,0011.80,0004.67,0003.85
2022-06-04 04:36:00,,0823.9,5.00,0.00,30.0,29.1,00.0,38.8,31.9,22.8,0000.0,0011.51,0004.63,0003.81
2022-06-04 04:37:00,,0823.8,4.99,0.00,30.0,29.1,00.0,38.9,31.9,23.0,0000.0,0011.09,0004.59,0003.77
2022-06-04 04:38:00,,0823.9,5.00,0.00,30.0,28.7,00.0,38.8,31.8,23.1,0000.0,0010.74,0004.51,0003.73
2022-06-04 04:39:00,,0823.8,5.00,0.00,30.0,27.8,00.0,38.7,31.6,23.4,0000.0,0009.99,0004.44,0003.70
2022-06-04 04:40:00,,0823.8,5.01,0.00,29.9,27.4,00.0,38.7,31.5,23.4,0000.0,0009.81,0004.40,0003.66
2022-06-04 04:41:00,,0823.8,4.99,0.00,29.8,27.3,00.0,38.7,31.3,23.5,0000.0,0009.15,0004.33,0003.62
2022-06-04 04:42:00,,0823.8,5.02,0.00,29.7,27.3,00.0,38.6,31.3,23.5,0000.0,0009.02,0004.28,0003.58
2022-06-04 04:43:00,,0823.8,4.99,0.00,29.6,27.4,00.0,38.6,31.3,23.5,0000.0,0008.90,0004.23,0003.56
2022-06-04 04:44:00,,0823.8,5.01,0.00,29.6,27.6,00.0,38.6,31.3,23.5,0000.0,0007.86,0004.15,0003.53
2022-06-04 04:45:00,,0823.8,5.00,0.00,29.6,27.7,00.0,38.6,31.3,23.7,0000.0,0008.57,0004.16,0003.51
2022-06-04 04:46:00,,0823.8,5.00,0.00,29.6,27.8,00.0,38.6,31.4,23.8,0000.0,0008.62,0004.17,0003.52
2022-06-04 04:47:00,,0823.8,5.00,0.00,29.6,28.0,00.0,38.6,31.4,23.9,0000.0,0008.67,0004.22,0003.54
2022-06-04 04:48:00,,0823.8,4.99,0.00,29.6,28.1,00.0,38.5,31.4,23.8,0000.0,0008.66,0004.23,0003.54
2022-06-04 04:49:00,,0823.8,5.00,0.00,29.6,28.2,00.0,38.5,31.4,23.6,0000.0,0009.91,0004.31,0003.55
2022-06-04 04:50:00,,0823.8,5.00,0.00,29.6,28.2,00.0,38.5,31.4,23.2,0000.0,0010.66,0004.32,0003.55
2022-06-04 04:51:00,,0823.8,4.99,0.00,29.6,28.3,00.0,38.5,31.4,23.2,0000.0,0010.63,0004.33,0003.56
2022-06-04 04:52:00,,0823.8,5.00,0.00,29.6,28.4,00.0,38.5,31.5,23.1,0000.0,0010.93,0004.36,0003.58
2022-06-04 04:53:00,,0823.8,4.99,0.00,29.6,28.4,00.0,38.5,31.5,23.0,0000.0,0011.08,0004.36,0003.60
2022-06-04 04:54:00,,0823.8,5.00,0.00,29.6,28.4,00.0,38.5,31.5,22.8,0000.0,0011.15,0004.38,0003.61
2022-06-04 04:55:00,,0823.8,5.01,0.00,29.6,28.5,00.0,38.5,31.5,22.9,0000.0,0011.69,0004.43,0003.64
2022-06-04 04:56:00,,0823.8,5.00,0.00,29.6,28.5,00.0,38.5,31.5,22.9,0000.0,0011.49,0004.43,0003.66
2022-06-04 04:57:00,,0823.8,4.99,0.00,29.7,28.5,00.0,38.5,31.5,22.9,0000.0,0011.60,0004.45,0003.67
2022-06-04 04:58:00,,0823.8,5.01,0.00,29.7,28.6,00.0,38.5,31.5,22.9,0000.0,0011.74,0004.48,0003.67
2022-06-04 04:59:00,,0823.8,5.00,0.00,29.7,28.6,00.0,38.5,31.6,22.9,0000.0,0012.14,0004.48,0003.68
